Location: ??
(31.9467°N, 34.8903°E)
Time: 12:00:32
(UTC+00:00)

Cosmos 1302 Rocket - Pass Details

Date: 29 October 2020
Orbit: 756 x 777 km, 74.0° (Epoch: 26 November)

Event Time Altitude Azimuth Distance (km) Brightness Sun altitude
Rises 15:10:52 0° 200° (SSW) 3,216 7.7 -4.5°
Reaches altitude 10° 15:13:13 10° 203° (SSW) 2,296 7.0 -5.0°
Maximum altitude 15:18:25 71° 287° (WNW) 814 4.4 -6.0°
Drops below altitude 10° 15:23:41 10° 12° (NNE) 2,322 6.3 -7.1°
Sets 15:26:06 0° 14° (NNE) 3,255 7.0 -7.6°
